Time,TemperatureF,DewpointF,PressureIn,WindDirection,WindDirectionDegrees,WindSpeedMPH,WindSpeedGustMPH,Humidity,HourlyPrecipIn,Conditions,Clouds,dailyrainin,SoftwareType,DateUTC
2013-07-19 08:04:00,73.6,56.3,29.88,South,174,1.7,2.5,55,0.00,,,0.00,WUHU216HW,2013-07-19 15:04:00,
2013-07-19 08:09:00,74.0,56.2,29.88,SSE,167,1.6,2.5,54,0.00,,,0.00,WUHU216HW,2013-07-19 15:09:00,
2013-07-19 08:14:00,74.0,56.2,29.88,SSE,158,0.9,0.9,54,0.00,,,0.00,WUHU216HW,2013-07-19 15:14:00,
2013-07-19 08:19:00,74.0,56.2,29.88,SSE,158,0.9,0.9,54,0.00,,,0.00,WUHU216HW,2013-07-19 15:19:00,
2013-07-19 09:04:00,78.1,56.8,29.88,SSE,158,3.1,3.1,48,0.00,,,0.00,WUHU216HW,2013-07-19 16:04:00,
2013-07-19 11:04:00,88.9,56.7,29.86,WSW,248,2.7,2.7,34,0.00,,,0.00,WUHU216HW,2013-07-19 18:04:00,
2013-07-19 12:04:00,92.0,56.3,29.85,West,270,2.9,2.9,30,0.00,,,0.00,WUHU216HW,2013-07-19 19:04:00,
2013-07-19 13:04:00,94.9,57.6,29.83,South,178,2.8,4.0,29,0.00,,,0.00,WUHU216HW,2013-07-19 20:04:00,
2013-07-19 13:09:00,95.4,55.8,29.83,SW,216,2.7,4.0,27,0.00,,,0.00,WUHU216HW,2013-07-19 20:09:00,
2013-07-19 13:14:00,95.4,54.7,29.83,SW,216,2.4,4.3,26,0.00,,,0.00,WUHU216HW,2013-07-19 20:14:00,
2013-07-19 13:19:00,95.4,54.7,29.82,SW,217,1.7,3.4,26,0.00,,,0.00,WUHU216HW,2013-07-19 20:19:00,
2013-07-19 13:24:00,95.9,56.3,29.82,SW,235,1.6,3.8,27,0.00,,,0.00,WUHU216HW,2013-07-19 20:24:00,
2013-07-19 13:29:00,95.9,56.3,29.82,SW,215,2.5,4.9,27,0.00,,,0.00,WUHU216HW,2013-07-19 20:29:00,
2013-07-19 13:34:00,96.1,56.4,29.82,West,271,2.3,4.3,27,0.00,,,0.00,WUHU216HW,2013-07-19 20:34:00,
2013-07-19 13:39:00,96.1,55.3,29.82,WNW,285,3.0,4.9,26,0.00,,,0.00,WUHU216HW,2013-07-19 20:39:00,
2013-07-19 13:44:00,96.1,56.4,29.82,West,268,1.8,3.8,27,0.00,,,0.00,WUHU216HW,2013-07-19 20:44:00,
2013-07-19 13:49:00,96.5,55.6,29.82,SW,235,2.6,4.7,26,0.00,,,0.00,WUHU216HW,2013-07-19 20:49:00,
2013-07-19 13:54:00,96.7,56.9,29.82,SW,222,2.2,3.8,27,0.00,,,0.00,WUHU216HW,2013-07-19 20:54:00,
2013-07-19 13:59:00,97.2,57.3,29.82,South,190,3.4,4.5,27,0.00,,,0.00,WUHU216HW,2013-07-19 20:59:00,
2013-07-19 14:04:00,97.4,56.3,29.81,West,261,3.5,5.4,26,0.00,,,0.00,WUHU216HW,2013-07-19 21:04:00,
2013-07-19 14:09:00,97.9,56.9,29.81,South,181,2.2,3.6,26,0.00,,,0.00,WUHU216HW,2013-07-19 21:09:00,
2013-07-19 14:14:00,97.9,55.7,29.81,SSW,197,1.8,4.3,25,0.00,,,0.00,WUHU216HW,2013-07-19 21:14:00,
2013-07-19 14:19:00,97.9,55.7,29.81,WSW,248,1.8,4.3,25,0.00,,,0.00,WUHU216HW,2013-07-19 21:19:00,
2013-07-19 15:04:00,99.7,56.2,29.79,West,270,2.0,2.0,24,0.00,,,0.00,WUHU216HW,2013-07-19 22:04:00,
2013-07-19 17:04:00,100.6,56.9,29.75,South,191,1.9,3.6,24,0.00,,,0.00,WUHU216HW,2013-07-20 00:04:00,
2013-07-19 17:09:00,100.8,57.1,29.75,West,270,1.1,1.1,24,0.00,,,0.00,WUHU216HW,2013-07-20 00:09:00,
2013-07-19 17:14:00,100.8,57.1,29.75,West,270,1.1,1.1,24,0.00,,,0.00,WUHU216HW,2013-07-20 00:14:00,
2013-07-19 19:04:00,97.7,56.7,29.74,WNW,285,2.3,3.6,26,0.00,,,0.00,WUHU216HW,2013-07-20 02:04:00,
2013-07-19 19:09:00,97.6,56.5,29.73,WNW,286,2.2,3.4,26,0.00,,,0.00,WUHU216HW,2013-07-20 02:09:00,
2013-07-19 19:14:00,97.4,56.3,29.74,WNW,303,1.8,2.5,26,0.00,,,0.00,WUHU216HW,2013-07-20 02:14:00,
2013-07-19 19:19:00,97.2,57.3,29.74,NW,307,1.2,2.0,27,0.00,,,0.00,WUHU216HW,2013-07-20 02:19:00,
2013-07-19 19:24:00,97.0,57.2,29.74,NW,315,1.1,1.8,27,0.00,,,0.00,WUHU216HW,2013-07-20 02:24:00,
2013-07-19 19:29:00,96.8,57.0,29.74,NW,315,1.1,1.8,27,0.00,,,0.00,WUHU216HW,2013-07-20 02:29:00,
2013-07-19 19:34:00,96.8,57.0,29.74,NW,315,0.7,1.1,27,0.00,,,0.00,WUHU216HW,2013-07-20 02:34:00,
2013-07-19 19:39:00,96.7,59.0,29.74,North,0,0.0,0.0,29,0.00,,,0.00,WUHU216HW,2013-07-20 02:39:00,
2013-07-19 19:44:00,96.7,59.0,29.74,NW,315,0.0,0.0,29,0.00,,,0.00,WUHU216HW,2013-07-20 02:44:00,
2013-07-19 20:04:00,93.2,61.3,29.74,North,0,0.0,0.0,35,0.00,,,0.00,WUHU216HW,2013-07-20 03:04:00,
2013-07-19 20:09:00,92.7,61.7,29.74,North,0,0.0,0.0,36,0.00,,,0.00,WUHU216HW,2013-07-20 03:09:00,
2013-07-19 20:14:00,92.2,61.2,29.75,North,0,0.0,0.0,36,0.00,,,0.00,WUHU216HW,2013-07-20 03:14:00,
2013-07-19 20:19:00,91.6,62.3,29.75,North,0,0.0,0.0,38,0.00,,,0.00,WUHU216HW,2013-07-20 03:19:00,
2013-07-19 20:29:00,90.7,62.3,29.75,North,0,0.0,0.0,39,0.00,,,0.00,WUHU216HW,2013-07-20 03:29:00,
2013-07-19 20:34:00,90.2,62.6,29.75,North,0,0.0,0.0,40,0.00,,,0.00,WUHU216HW,2013-07-20 03:34:00,
2013-07-19 20:39:00,89.6,62.1,29.76,North,0,0.0,0.0,40,0.00,,,0.00,WUHU216HW,2013-07-20 03:39:00,
2013-07-19 20:44:00,89.3,62.5,29.76,North,0,0.0,0.0,41,0.00,,,0.00,WUHU216HW,2013-07-20 03:44:00,
2013-07-19 20:49:00,88.6,62.6,29.76,North,0,0.0,0.0,42,0.00,,,0.00,WUHU216HW,2013-07-20 03:49:00,
2013-07-19 20:54:00,87.8,61.9,29.76,North,0,0.0,0.0,42,0.00,,,0.00,WUHU216HW,2013-07-20 03:54:00,
2013-07-19 20:59:00,87.1,61.9,29.77,North,0,0.0,0.0,43,0.00,,,0.00,WUHU216HW,2013-07-20 03:59:00,
2013-07-19 21:04:00,86.6,62.0,29.77,North,0,0.0,0.0,44,0.00,,,0.00,WUHU216HW,2013-07-20 04:04:00,
2013-07-19 21:09:00,86.0,62.2,29.77,North,0,0.0,0.0,45,0.00,,,0.00,WUHU216HW,2013-07-20 04:09:00,
2013-07-19 21:14:00,85.3,62.2,29.77,North,0,0.0,0.0,46,0.00,,,0.00,WUHU216HW,2013-07-20 04:14:00,
2013-07-19 21:19:00,84.8,61.7,29.77,North,0,0.0,0.0,46,0.00,,,0.00,WUHU216HW,2013-07-20 04:19:00,
2013-07-19 21:24:00,84.2,61.2,29.77,North,0,0.0,0.0,46,0.00,,,0.00,WUHU216HW,2013-07-20 04:24:00,
2013-07-19 21:29:00,84.1,61.7,29.78,ESE,119,0.3,0.4,47,0.00,,,0.00,WUHU216HW,2013-07-20 04:29:00,
2013-07-19 21:34:00,83.9,61.5,29.78,North,0,0.0,0.0,47,0.00,,,0.00,WUHU216HW,2013-07-20 04:34:00,
2013-07-19 21:39:00,83.9,61.5,29.78,North,0,0.0,0.0,47,0.00,,,0.00,WUHU216HW,2013-07-20 04:39:00,
2013-07-19 21:44:00,83.9,61.5,29.78,North,0,0.0,0.0,47,0.00,,,0.00,WUHU216HW,2013-07-20 04:44:00,
2013-07-19 21:49:00,83.7,61.3,29.78,North,0,0.0,0.0,47,0.00,,,0.00,WUHU216HW,2013-07-20 04:49:00,
2013-07-19 21:54:00,83.3,60.9,29.78,North,0,0.0,0.0,47,0.00,,,0.00,WUHU216HW,2013-07-20 04:54:00,
2013-07-19 21:59:00,83.3,61.6,29.78,North,0,0.0,0.0,48,0.00,,,0.00,WUHU216HW,2013-07-20 04:59:00,
2013-07-19 22:04:00,82.8,61.0,29.78,North,0,0.0,0.0,48,0.00,,,0.00,WUHU216HW,2013-07-20 05:04:00,
2013-07-19 22:09:00,82.4,60.7,29.78,North,0,0.0,0.0,48,0.00,,,0.00,WUHU216HW,2013-07-20 05:09:00,
2013-07-19 22:14:00,82.1,60.4,29.78,North,0,0.0,0.0,48,0.00,,,0.00,WUHU216HW,2013-07-20 05:14:00,
2013-07-19 22:19:00,81.9,60.2,29.78,North,0,0.0,0.0,48,0.00,,,0.00,WUHU216HW,2013-07-20 05:19:00,
2013-07-19 22:24:00,81.7,60.7,29.78,North,0,0.0,0.0,49,0.00,,,0.00,WUHU216HW,2013-07-20 05:24:00,
2013-07-19 22:29:00,81.4,60.3,29.77,North,0,0.0,0.0,49,0.00,,,0.00,WUHU216HW,2013-07-20 05:29:00,
2013-07-19 22:34:00,81.0,60.7,29.77,North,0,0.0,0.0,50,0.00,,,0.00,WUHU216HW,2013-07-20 05:34:00,
2013-07-19 22:39:00,80.6,60.3,29.77,North,0,0.0,0.0,50,0.00,,,0.00,WUHU216HW,2013-07-20 05:39:00,
2013-07-19 22:44:00,80.5,60.1,29.77,North,0,0.0,0.0,50,0.00,,,0.00,WUHU216HW,2013-07-20 05:44:00,
2013-07-19 22:49:00,80.3,59.9,29.78,North,0,0.0,0.0,50,0.00,,,0.00,WUHU216HW,2013-07-20 05:49:00,
2013-07-19 22:54:00,80.1,60.3,29.78,North,0,0.0,0.0,51,0.00,,,0.00,WUHU216HW,2013-07-20 05:54:00,
2013-07-19 22:59:00,79.9,60.2,29.77,North,0,0.0,0.0,51,0.00,,,0.00,WUHU216HW,2013-07-20 05:59:00,
2013-07-19 23:04:00,79.7,60.0,29.77,North,0,0.0,0.0,51,0.00,,,0.00,WUHU216HW,2013-07-20 06:04:00,
2013-07-19 23:09:00,79.6,59.9,29.77,North,0,0.0,0.0,51,0.00,,,0.00,WUHU216HW,2013-07-20 06:09:00,
2013-07-19 23:14:00,79.2,60.0,29.77,North,0,0.0,0.0,52,0.00,,,0.00,WUHU216HW,2013-07-20 06:14:00,
2013-07-19 23:19:00,79.0,59.9,29.78,North,0,0.0,0.0,52,0.00,,,0.00,WUHU216HW,2013-07-20 06:19:00,
2013-07-19 23:24:00,78.7,59.6,29.78,North,0,0.0,0.0,52,0.00,,,0.00,WUHU216HW,2013-07-20 06:24:00,
2013-07-19 23:29:00,78.7,59.6,29.77,North,0,0.0,0.0,52,0.00,,,0.00,WUHU216HW,2013-07-20 06:29:00,
2013-07-19 23:34:00,78.5,58.9,29.78,North,0,0.0,0.0,51,0.00,,,0.00,WUHU216HW,2013-07-20 06:34:00,
2013-07-19 23:39:00,78.1,59.0,29.77,North,0,0.0,0.0,52,0.00,,,0.00,WUHU216HW,2013-07-20 06:39:00,
2013-07-19 23:44:00,77.8,58.8,29.78,North,0,0.0,0.0,52,0.00,,,0.00,WUHU216HW,2013-07-20 06:44:00,
2013-07-19 23:49:00,77.6,59.0,29.77,North,0,0.0,0.0,53,0.00,,,0.00,WUHU216HW,2013-07-20 06:49:00,
2013-07-19 23:54:00,77.4,58.4,29.78,North,0,0.0,0.0,52,0.00,,,0.00,WUHU216HW,2013-07-20 06:54:00,
2013-07-19 23:59:00,77.2,58.8,29.77,North,0,0.0,0.0,53,0.00,,,0.00,WUHU216HW,2013-07-20 06:59:00,